Theta_e
298 298 298 298 298 298 297 297 297 297 297 299 301 302 304 305 304 305 305 304 304 304 305 305 304 304 305 304 305 305 305 305 305 305 305 306 306 307 308 309 311 313 313 311 308 308 308 307 308 310 309 310 310 309 309 308 309 310 311 312 316 317 315 314 313 312 312 312 312 312 313 313 313 312 313 314 313 311 312 311 313 312 310 311 311 312 318
298 298 298 298 298 298 298 297 297 297 297 298 300 302 304 304 305 305 305 305 304 305 305 303 304 304 304 305 306 306 306 306 306 306 306 307 308 308 309 309 311 313 312 310 309 308 308 309 309 310 310 310 310 310 309 309 309 310 311 314 315 315 314 314 314 314 312 313 312 312 312 312 312 312 313 314 313 313 315 313 314 313 311 311 312 313 321
297 297 297 298 298 298 297 297 297 298 297 298 300 302 303 304 306 305 305 306 304 304 304 303 304 305 305 306 307 306 307 307 306 306 307 307 308 309 310 310 310 312 311 310 309 308 309 310 310 310 310 311 311 309 309 309 309 310 315 318 314 314 316 315 315 315 314 314 313 310 311 311 312 313 313 313 313 314 314 312 312 312 312 312 311 313 323
297 297 297 297 298 297 297 297 297 298 298 298 300 303 304 305 306 305 305 305 305 305 305 305 305 305 306 307 307 307 308 308 307 307 308 308 309 310 310 310 311 312 312 312 310 308 309 310 310 310 310 310 309 309 309 309 309 313 320 321 314 314 316 315 314 314 312 312 312 311 311 311 311 312 312 312 314 314 314 313 311 313 313 312 311 316 324
296 296 296 297 297 296 297 297 297 297 298 299 301 303 304 304 305 304 304 305 306 306 306 306 306 307 307 307 308 307 309 310 309 308 309 309 310 311 311 311 312 312 312 312 310 309 309 310 310 310 310 310 309 309 309 308 312 316 316 315 314 314 315 316 315 314 313 312 311 313 313 312 311 312 312 312 313 314 316 314 314 315 313 311 315 323 326
295 296 296 296 296 296 297 297 297 297 297 299 302 303 303 304 303 303 304 304 305 306 306 306 306 307 308 308 308 308 309 311 311 310 310 310 310 311 313 313 312 312 311 311 312 310 309 310 311 311 310 310 309 308 307 308 312 315 312 310 314 314 314 316 315 314 314 313 313 314 313 312 312 312 312 313 314 314 316 316 316 316 313 312 320 329 328
295 295 295 295 295 296 297 297 296 296 297 299 302 302 302 302 302 302 303 303 303 304 305 306 307 308 308 308 308 309 310 310 311 310 311 312 311 310 313 314 312 310 310 311 312 312 313 313 312 311 310 309 309 308 308 309 310 310 310 311 315 314 312 315 315 314 313 314 313 314 313 312 312 313 313 315 314 315 315 316 318 318 317 316 322 329 329
294 295 295 295 296 296 296 296 297 297 297 299 301 301 301 301 301 302 302 302 303 304 305 307 308 308 309 309 309 310 310 310 310 310 311 313 312 309 312 315 312 310 310 312 313 315 317 317 316 316 314 310 309 309 309 310 308 308 310 311 314 314 313 315 314 312 313 314 314 314 314 313 311 311 313 314 314 315 315 316 318 318 318 319 321 324 324
294 295 295 295 295 296 296 296 296 297 297 298 300 300 300 300 301 301 301 301 303 304 305 306 308 309 309 310 310 310 310 310 310 310 310 312 313 312 313 315 313 312 311 314 316 316 317 317 318 319 316 312 310 309 309 310 309 309 310 312 314 314 313 315 314 313 313 314 314 314 313 313 312 312 313 314 314 315 315 316 319 318 317 319 320 318 318
294 294 294 295 295 295 296 296 296 297 297 298 299 299 300 300 300 301 301 302 303 304 305 306 308 309 309 309 309 309 309 309 309 311 310 310 312 313 314 314 314 314 314 316 316 316 316 317 316 316 317 316 313 310 309 310 310 311 312 312 313 314 313 314 314 313 313 314 314 314 314 313 312 313 315 316 316 317 316 316 319 319 318 319 318 316 320
294 294 294 295 295 295 295 296 296 297 297 297 298 299 299 299 299 300 301 302 303 303 305 306 307 309 308 308 308 309 309 309 310 311 311 310 311 312 313 314 315 315 315 315 315 315 317 318 316 316 317 317 315 310 309 310 310 310 312 313 313 314 314 313 313 313 314 314 313 315 315 314 315 318 318 317 317 317 316 317 319 320 319 319 318 318 323
294 294 294 294 295 295 295 296 296 297 297 297 297 298 298 298 299 300 301 302 303 303 304 306 306 307 308 308 308 309 309 310 310 311 311 311 311 311 312 314 315 315 315 314 314 314 315 317 317 318 317 317 314 311 310 311 310 310 312 313 313 314 314 313 313 314 314 315 314 316 317 317 319 322 321 319 320 319 317 318 318 317 318 319 319 318 321
294 294 294 295 295 295 295 296 296 296 297 297 297 298 298 298 299 300 300 301 302 303 304 305 305 307 308 309 309 309 309 310 310 310 311 311 311 312 313 313 314 315 313 312 313 314 315 317 319 321 319 316 314 312 311 310 310 310 311 311 312 314 314 313 313 313 313 315 315 316 318 320 322 324 322 321 321 321 319 319 317 316 318 319 318 317 321
293 294 294 294 295 295 295 296 296 296 297 297 297 297 298 298 299 299 299 301 302 302 302 304 305 307 308 308 309 309 310 311 311 312 312 312 313 313 313 312 312 312 312 313 314 314 315 315 318 320 320 319 316 315 313 311 310 312 312 312 312 313 313 313 313 312 312 314 315 315 317 319 321 322 323 322 321 321 320 319 319 318 319 318 318 317 320
293 294 294 294 295 295 295 296 296 296 297 297 297 297 298 299 299 299 300 300 300 301 303 305 306 306 307 308 309 310 310 311 311 312 313 313 313 313 312 312 312 312 312 314 315 315 314 313 315 318 320 320 318 316 314 311 312 313 313 312 311 313 314 313 313 313 312 313 316 316 317 317 317 319 322 321 320 321 320 319 319 320 319 319 319 317 320
293 293 294 294 295 295 295 295 296 296 297 297 297 298 298 299 299 300 300 299 300 302 304 304 304 305 306 307 309 310 310 311 312 312 313 314 314 313 313 312 313 313 313 315 316 316 314 312 314 317 318 319 318 317 315 313 313 313 313 313 312 312 313 313 313 314 312 313 316 317 316 317 317 318 320 320 319 319 319 319 319 320 319 319 319 319 319
293 293 294 294 294 295 295 295 296 296 297 297 297 298 298 299 300 300 300 299 300 301 302 302 303 305 306 308 309 310 310 311 312 312 313 314 314 315 314 313 313 313 314 315 316 316 314 313 313 315 316 316 317 318 316 315 315 314 314 314 314 313 314 313 314 314 313 313 314 315 316 320 321 319 319 318 319 319 321 320 319 319 320 319 317 320 320
293 293 294 294 294 294 295 295 296 296 297 297 297 298 298 300 300 300 300 299 299 300 301 302 304 305 306 307 308 308 309 310 312 312 312 313 314 315 315 315 315 314 313 313 315 315 314 313 313 313 315 315 315 316 316 316 316 315 314 314 315 314 314 313 314 314 313 313 314 314 318 323 324 321 319 319 320 321 320 320 321 324 325 321 317 320 321
293 293 294 294 294 294 295 295 296 296 296 297 297 298 299 299 300 300 300 299 299 300 302 302 303 303 304 305 306 307 308 310 311 311 311 313 315 315 314 314 315 315 314 313 315 314 313 313 313 313 314 314 314 316 317 317 316 315 314 315 315 314 314 313 314 314 313 314 314 314 318 324 324 322 321 321 322 322 322 324 326 326 326 322 318 319 320
293 293 293 294 294 294 295 295 296 296 296 297 297 298 299 299 300 301 301 300 299 300 301 302 303 304 305 306 306 307 308 309 310 311 312 313 314 314 315 315 315 316 316 314 314 315 314 313 313 313 313 314 316 317 316 315 315 314 314 315 314 314 313 313 313 313 313 314 314 314 318 323 324 322 322 322 322 323 324 326 327 326 325 324 322 320 320
293 293 293 294 294 294 294 295 296 296 296 297 297 298 299 299 300 301 301 301 301 302 303 305 305 305 305 306 306 307 307 308 309 311 311 312 312 314 315 316 316 316 316 315 314 314 315 316 316 315 315 316 317 317 315 314 315 315 315 315 315 314 313 313 313 312 312 314 315 316 319 323 323 322 322 323 324 325 327 327 327 326 327 326 324 323 323
293 293 293 293 294 294 295 295 295 296 296 297 297 298 299 299 300 301 301 302 302 302 303 304 305 305 304 305 305 305 306 307 308 309 310 310 311 312 314 316 316 316 315 316 316 316 316 318 317 316 318 319 318 316 314 314 315 316 315 315 315 314 315 316 316 314 314 316 320 322 323 323 322 322 325 325 325 326 327 326 326 326 326 326 327 328 328
293 293 293 294 294 294 294 295 295 296 296 297 297 298 298 299 299 300 301 302 302 303 304 304 305 305 306 307 307 307 306 306 307 308 309 310 311 312 313 316 317 316 315 315 316 317 318 318 318 317 318 319 319 318 316 314 313 314 315 316 315 315 315 317 317 317 316 320 322 323 323 323 323 323 325 327 326 325 325 325 326 326 325 326 329 330 329
293 293 293 293 294 294 294 295 295 296 296 296 297 297 298 298 299 300 302 303 303 304 306 307 307 308 310 311 311 310 308 306 306 307 308 310 311 312 314 315 315 315 316 316 316 317 316 316 317 317 318 319 319 318 317 315 314 315 316 315 315 315 316 316 317 316 316 318 320 322 322 323 323 323 324 324 324 324 324 324 325 325 324 325 328 328 328
293 293 293 293 294 294 294 295 295 296 296 296 297 297 298 299 300 301 303 304 304 304 306 308 309 310 311 310 311 310 309 307 307 307 308 309 310 311 314 315 315 315 316 315 315 316 315 315 316 317 317 318 318 318 317 317 317 318 318 316 316 317 317 316 317 317 315 316 319 322 324 323 322 321 323 322 323 323 323 323 324 324 324 325 326 326 326
293 293 293 293 294 294 294 295 295 296 296 296 296 297 298 299 300 301 303 304 305 306 307 308 309 310 311 311 311 311 310 308 308 308 309 309 310 311 312 313 313 314 314 313 314 315 314 314 315 317 317 317 318 318 318 319 318 318 317 317 319 319 318 317 317 315 315 318 321 322 323 323 321 320 321 322 324 323 323 323 324 324 324 325 325 325 325
293 293 293 294 294 294 295 295 295 295 296 296 296 297 298 299 300 302 304 305 307 308 308 308 309 309 310 310 311 311 311 310 309 309 309 310 311 311 312 312 312 313 313 313 313 313 313 314 315 316 316 317 317 317 319 320 320 319 319 320 320 320 320 320 319 316 318 322 323 322 321 322 324 324 323 323 324 324 323 324 324 324 323 324 323 324 324
293 293 294 294 294 294 294 295 295 295 295 296 296 297 299 300 302 304 305 305 306 307 307 307 307 308 309 310 311 311 312 311 310 310 311 311 311 311 312 312 313 313 313 312 312 313 313 314 315 315 316 317 318 317 318 320 319 319 319 320 321 321 322 322 321 319 321 323 323 323 324 324 325 325 324 323 323 323 323 324 324 323 322 322 322 323 324
293 293 293 294 294 294 294 295 295 295 295 295 297 299 302 304 304 305 306 306 306 307 306 305 307 309 310 311 311 311 312 312 312 312 312 312 312 312 312 312 312 312 311 311 311 312 313 313 314 315 316 318 318 317 317 318 318 318 319 321 321 322 322 323 322 322 322 323 322 323 324 324 324 323 323 322 322 323 323 324 323 322 321 321 322 322 323
293 293 294 294 294 294 295 295 294 294 295 296 298 301 305 308 307 307 307 306 306 306 305 305 307 309 310 311 311 311 311 312 312 313 313 313 313 313 313 312 311 311 310 310 311 312 312 312 313 314 317 317 317 317 317 317 317 318 319 319 320 321 322 322 322 322 322 321 321 322 323 322 322 322 321 321 321 322 323 322 322 321 321 320 320 321 322
293 293 294 294 294 294 294 293 294 294 295 297 299 303 307 310 308 306 306 305 305 305 305 305 307 308 309 311 312 310 310 311 312 313 314 315 314 314 313 312 311 310 310 312 312 311 312 312 312 314 316 316 315 316 318 318 319 319 319 319 320 320 320 320 321 321 320 320 320 320 321 321 321 321 321 320 321 321 321 321 321 321 321 321 319 320 321
293 293 294 294 294 293 293 293 294 295 296 298 299 302 305 307 305 305 304 303 304 304 304 306 308 309 310 312 311 309 310 311 312 313 314 314 315 314 313 312 312 312 312 312 311 311 312 312 312 313 315 315 314 315 317 318 319 320 319 319 320 320 319 319 319 319 319 319 321 322 322 321 321 321 321 320 320 320 320 319 319 320 321 320 319 319 320
293 294 294 293 293 293 294 295 295 296 297 297 298 299 301 302 303 303 302 303 304 305 305 307 310 310 311 311 311 310 309 310 311 312 313 314 314 314 313 313 313 313 312 311 311 311 311 311 311 313 315 316 314 314 317 319 319 319 318 319 320 319 318 318 318 317 317 318 319 321 321 320 319 319 319 319 319 319 319 318 318 319 320 319 318 319 319
293 293 293 293 294 295 296 296 297 297 298 299 300 303 305 305 303 302 302 304 306 307 307 308 310 311 311 312 311 310 308 309 311 311 312 313 314 314 313 313 313 313 312 311 310 310 310 311 311 313 315 315 314 314 317 319 319 318 318 318 318 317 317 317 317 317 317 317 318 318 318 318 318 318 319 319 319 319 319 318 318 318 319 319 318 318 318
293 293 294 295 296 297 298 298 299 300 302 304 305 307 308 307 305 303 303 305 307 308 309 310 310 311 312 312 310 309 308 309 309 309 310 313 314 314 312 312 312 312 312 312 311 310 310 311 312 313 315 315 315 316 319 320 319 319 318 317 317 318 318 318 317 316 316 316 316 317 317 317 317 317 318 318 317 318 318 317 317 318 318 318 317 318 317
294 295 296 297 298 299 301 303 303 305 307 308 307 307 305 304 304 304 305 305 306 308 310 311 311 311 312 310 310 309 308 309 309 308 310 312 314 313 312 312 312 312 312 312 311 311 311 312 312 313 315 315 316 317 319 319 319 318 317 316 317 317 317 316 316 316 315 315 316 316 316 316 317 317 317 316 316 317 317 317 317 318 318 317 317 317 316
296 297 298 299 301 303 306 307 308 308 307 306 305 304 303 303 305 306 306 306 306 307 308 310 311 311 310 310 309 309 307 307 308 309 308 309 310 311 311 311 311 311 311 311 310 309 311 311 312 313 315 315 316 317 317 317 317 317 316 315 316 315 315 315 315 315 315 315 315 315 314 315 315 315 315 315 315 316 316 316 317 317 317 317 316 316 316
298 299 300 302 305 306 307 308 308 306 304 303 303 305 306 306 308 308 308 308 308 308 308 309 311 312 311 310 310 309 307 306 307 308 307 306 306 307 308 308 308 309 310 310 309 309 310 310 309 312 314 315 314 314 314 315 315 315 314 314 315 314 314 313 313 314 315 316 315 314 314 314 314 314 314 314 315 315 316 316 316 315 316 316 315 315 314
299 300 301 303 304 304 306 306 305 303 303 305 306 307 308 309 309 310 310 310 310 310 310 311 312 312 311 310 309 309 307 306 306 307 307 306 306 306 307 307 307 308 309 309 309 310 311 309 308 310 314 315 314 313 313 313 313 313 313 313 314 313 313 312 312 312 314 315 314 313 313 313 313 313 313 313 313 314 314 314 315 315 314 314 313 313 313
299 299 299 301 302 302 302 303 303 303 306 308 308 307 308 309 309 310 310 310 310 310 310 311 311 311 310 309 309 308 308 306 306 307 307 306 306 306 306 306 307 307 307 307 308 309 310 309 308 311 315 316 314 313 313 313 312 312 313 313 313 312 312 312 311 312 312 313 312 312 312 312 312 312 312 312 312 313 313 313 313 313 313 312 312 312 312
297 296 297 298 299 300 300 302 304 305 306 307 307 307 307 307 308 308 307 308 308 308 308 310 310 309 309 310 309 308 308 307 306 306 306 306 305 306 306 306 307 307 307 306 306 308 309 307 307 313 316 316 314 313 313 312 312 312 312 312 312 311 311 311 311 312 312 312 311 311 311 311 311 311 311 311 311 312 312 312 312 312 311 311 311 311 310
294 295 295 296 298 299 301 303 305 306 306 306 307 307 307 307 307 307 307 306 307 307 308 309 308 308 309 309 308 307 307 307 306 306 305 305 304 305 305 306 306 306 306 306 307 308 307 305 308 313 316 315 313 313 312 312 311 311 312 311 311 311 311 311 311 311 312 312 311 311 311 311 311 311 311 311 311 311 311 311 311 311 310 310 310 310 309
295 296 297 298 300 302 303 305 306 306 307 306 306 306 307 306 307 307 307 306 307 307 308 309 309 308 308 309 308 308 308 306 306 305 305 304 304 304 305 305 305 305 306 307 307 307 306 305 308 313 315 314 313 313 312 311 311 311 311 311 311 311 311 311 311 311 311 311 311 311 311 312 311 311 311 311 311 310 310 310 310 310 309 309 308 308 308
297 299 300 301 302 303 304 306 306 306 307 307 306 306 307 307 307 307 307 307 308 307 308 309 308 308 309 309 309 308 307 307 306 305 304 304 304 303 303 304 304 305 306 306 306 306 306 307 310 313 313 313 313 313 312 311 311 311 311 310 311 311 311 310 310 310 310 310 311 311 311 311 311 311 311 311 311 310 310 309 309 308 308 308 307 307 307
298 299 300 302 303 304 304 305 306 306 306 307 306 306 307 308 308 307 307 308 308 308 308 308 308 308 309 309 308 306 306 306 305 304 304 303 303 303 303 304 305 305 306 306 306 305 306 308 311 313 313 312 313 312 311 311 311 310 310 310 310 310 310 310 310 310 310 309 310 311 310 310 311 311 311 311 310 310 309 309 308 308 307 307 306 306 306
298 299 300 303 305 305 304 305 305 305 305 306 306 307 308 308 308 308 309 309 308 308 308 308 309 309 308 309 308 306 306 305 305 304 304 303 302 303 303 304 304 304 305 305 305 305 307 308 311 312 313 313 313 312 311 311 311 310 310 310 310 310 310 310 310 310 310 310 310 311 310 311 311 311 311 310 310 309 309 309 308 308 307 306 306 305 305
298 298 300 302 305 305 304 304 305 305 306 306 307 307 308 309 309 309 309 308 308 308 308 308 309 308 308 308 307 307 307 306 305 304 304 303 302 302 302 303 303 304 304 304 304 306 307 308 310 312 313 313 313 312 311 311 311 311 310 311 310 310 310 310 309 309 310 310 310 310 310 311 310 310 310 310 310 309 309 308 308 307 306 306 306 305 305
297 298 300 303 304 305 304 304 305 305 306 307 308 308 309 309 310 311 309 308 308 309 308 308 308 308 308 307 307 307 307 306 304 304 303 303 302 301 302 302 302 303 304 305 306 307 308 309 310 313 313 313 313 312 312 311 311 311 311 310 310 310 310 309 309 309 310 310 309 310 310 310 310 310 310 310 310 309 309 308 307 306 306 306 306 306 306
297 297 299 301 303 304 305 305 305 305 306 307 308 308 308 308 310 310 309 307 308 309 308 308 308 307 307 307 307 307 307 306 305 304 304 303 301 300 301 302 302 303 304 307 308 308 308 309 311 313 314 313 313 312 312 311 311 311 310 310 310 310 309 309 309 310 310 310 310 310 310 310 310 310 310 310 310 309 309 308 307 306 306 306 306 306 305
296 297 298 299 301 302 304 305 305 305 306 306 307 308 308 309 310 309 308 307 308 308 308 308 307 306 306 307 307 306 306 306 305 305 304 303 301 301 302 302 303 304 306 307 308 308 309 310 312 313 314 313 313 313 312 311 310 310 310 310 310 310 310 309 310 310 310 310 310 310 310 310 310 310 310 310 309 309 308 308 308 307 306 306 306 305 304
296 297 298 299 300 301 302 304 304 305 306 307 308 308 308 308 309 309 307 307 307 308 307 307 307 305 305 306 306 306 306 306 305 305 305 304 303 302 302 302 304 307 308 308 308 308 308 309 311 313 313 313 313 312 312 311 310 310 310 310 311 310 310 310 310 309 310 310 310 310 310 309 309 309 309 309 309 308 308 308 308 307 306 306 305 305 304
296 297 298 298 299 300 300 301 303 305 307 307 307 307 307 307 307 308 307 307 307 307 307 306 306 306 306 306 306 306 306 305 304 305 305 304 303 303 303 305 307 308 308 308 308 308 308 309 311 313 313 313 313 312 312 310 310 310 310 310 310 310 310 310 310 309 309 310 310 309 309 309 309 309 309 309 309 308 308 307 307 307 306 306 306 305 304
Wind_Speed
27 28 28 28 29 29 30 33 35 38 39 32 24 18 9 6 6 2 5 4 3 4 5 4 2 2 6 9 8 7 6 8 8 7 6 4 3 3 4 6 6 4 7 7 9 9 8 10 8 7 10 8 10 16 16 15 16 13 8 9 10 5 5 8 8 8 10 12 14 16 17 14 11 11 11 10 11 11 8 7 6 6 8 7 6 5 2
26 27 27 27 29 30 31 33 35 36 36 31 22 13 6 6 7 1 5 5 4 5 5 6 5 5 9 11 9 4 3 6 7 7 7 5 3 4 4 5 5 6 9 9 9 10 8 7 8 9 10 7 11 15 14 13 14 11 8 7 7 4 6 9 7 7 9 10 11 14 16 14 10 10 13 13 14 15 12 8 6 5 8 10 8 4 3
25 26 27 28 29 30 31 32 33 35 35 30 19 9 5 6 6 2 3 5 5 5 5 6 7 8 11 12 10 6 4 5 6 7 8 5 4 6 5 6 8 7 9 7 8 10 8 6 7 9 9 7 9 14 12 13 13 13 8 3 6 6 7 8 8 8 10 9 10 11 11 10 8 11 17 17 16 16 13 7 6 5 7 10 9 4 6
24 25 26 27 28 29 30 31 33 35 34 30 20 11 6 4 3 3 2 2 4 5 6 6 7 8 10 9 8 9 8 5 3 5 5 5 5 7 6 7 8 6 7 5 8 12 9 6 7 9 8 5 8 13 14 14 13 12 5 5 2 6 5 9 11 9 9 9 9 11 10 10 10 14 19 18 16 17 11 6 7 6 6 8 8 4 10
23 24 25 25 26 28 29 30 32 34 32 29 20 10 5 3 2 4 5 4 4 4 4 6 7 9 9 7 7 10 10 6 2 2 2 6 8 7 5 6 7 6 4 4 8 12 11 8 7 9 8 6 8 11 13 14 11 9 5 6 4 3 4 12 15 12 11 11 10 13 15 15 15 16 17 16 16 17 12 8 9 8 6 7 5 8 11
23 24 25 25 26 27 28 29 31 32 31 26 17 6 2 4 3 4 4 4 5 6 7 9 11 13 11 7 7 10 10 8 6 1 2 6 8 5 4 5 7 6 4 3 4 9 10 8 7 8 7 8 9 10 13 13 10 8 5 6 6 4 4 10 13 13 12 12 13 16 17 16 15 15 14 13 15 18 15 11 11 10 7 6 4 11 10
23 23 24 25 25 25 26 27 29 30 29 24 14 5 4 5 4 4 5 5 7 10 12 13 14 13 11 7 7 10 10 10 9 4 3 5 5 4 4 6 7 5 5 3 4 5 4 4 6 7 7 9 9 8 11 12 11 11 9 6 5 4 5 8 11 11 10 11 13 15 15 15 16 16 15 14 15 18 17 13 11 12 10 9 6 10 9
23 23 23 24 25 24 25 26 26 27 26 20 10 5 4 4 4 5 6 7 8 9 10 10 11 10 8 6 7 9 10 11 10 6 2 3 2 2 3 7 7 4 4 2 2 3 6 4 1 2 2 9 8 6 7 10 13 14 10 5 2 3 4 10 10 8 9 12 12 12 12 13 15 16 16 15 15 16 15 12 9 10 11 10 7 7 7
23 23 23 24 24 24 24 25 25 25 24 17 7 5 7 7 8 7 6 6 7 8 7 8 8 7 6 6 7 9 10 11 11 7 4 5 1 3 3 7 7 4 2 2 2 5 7 9 8 9 5 3 6 6 6 9 12 12 9 6 4 3 4 9 8 6 6 10 11 11 12 13 15 16 16 16 14 12 12 11 10 10 9 9 9 7 6
22 23 23 24 24 25 24 24 24 23 23 17 7 5 10 10 9 7 6 5 7 8 7 8 7 5 6 8 9 11 11 11 11 7 4 6 6 5 6 7 6 4 1 2 1 2 4 9 11 9 8 6 4 7 8 9 10 9 7 6 6 5 5 6 6 5 6 10 11 5 5 10 12 10 12 15 15 12 11 12 12 11 8 6 8 7 5
22 22 23 23 23 24 23 23 23 22 22 18 10 8 11 11 7 5 5 5 6 7 7 7 6 7 10 13 12 11 12 11 10 7 6 8 9 8 7 5 4 3 3 6 7 6 5 6 9 8 9 11 6 10 10 11 11 8 6 5 6 7 6 5 5 5 6 11 9 1 2 8 4 2 8 11 12 15 15 13 11 12 10 7 6 5 5
22 22 22 23 23 23 23 23 22 21 20 19 15 12 13 14 9 5 3 4 6 7 6 7 9 10 12 13 12 11 12 12 10 9 9 9 9 8 6 2 1 1 7 10 9 8 5 6 4 5 10 10 3 8 11 14 13 9 8 7 6 6 5 4 5 4 4 6 6 5 6 5 2 5 8 7 6 10 14 15 15 15 14 11 9 8 5
21 21 22 22 23 22 23 22 22 20 19 20 18 15 15 15 9 3 3 5 6 6 7 10 12 12 12 12 13 12 12 12 11 10 9 9 9 8 5 4 3 2 3 4 5 6 2 3 2 5 9 8 1 5 10 15 15 11 10 9 7 6 5 4 4 4 4 6 7 7 4 1 2 4 6 5 6 7 5 11 16 16 14 13 13 13 9
21 21 21 22 22 22 22 21 21 20 19 19 19 17 16 15 9 4 3 4 5 8 9 9 10 12 13 13 13 11 11 11 9 8 8 7 8 8 6 6 6 4 4 4 4 4 1 4 4 2 5 3 2 5 7 12 14 13 12 11 10 8 5 4 4 4 5 6 7 5 2 2 3 3 4 5 7 6 3 3 8 12 14 12 12 14 11
20 21 21 21 21 22 21 21 21 21 19 19 19 17 16 16 11 6 3 3 6 8 6 4 8 13 13 13 12 10 9 9 8 8 8 6 5 7 6 5 6 6 5 4 2 2 1 3 5 3 0 1 4 3 5 8 11 12 12 12 12 10 6 6 6 4 4 5 6 6 6 5 6 7 7 5 7 8 4 3 4 7 9 10 12 14 13
21 21 21 21 21 21 21 21 21 21 19 19 20 18 16 15 12 8 3 2 4 5 5 9 12 12 10 10 11 10 7 7 8 8 6 5 4 5 4 4 5 5 6 3 2 3 3 2 4 3 2 3 5 4 4 6 7 8 9 10 12 12 8 5 4 4 4 5 6 6 6 3 2 6 10 8 5 3 1 2 6 5 7 9 11 13 14
21 20 20 20 20 21 21 20 20 20 19 19 19 19 17 14 12 8 3 2 3 5 9 12 11 8 6 6 7 7 6 6 7 7 6 7 7 7 7 6 4 3 4 3 1 1 3 2 3 2 1 1 3 5 6 6 6 8 8 7 9 10 8 5 5 5 5 5 5 4 2 1 4 4 8 9 6 4 4 5 6 4 6 11 10 8 11
21 21 20 20 20 20 20 20 20 20 19 19 19 18 16 14 12 9 4 2 3 5 7 8 8 6 6 6 7 7 6 7 7 6 7 7 6 7 8 8 4 0 1 3 1 1 3 2 3 2 1 2 3 4 5 5 6 9 10 8 7 7 6 5 6 7 6 6 5 4 2 3 4 4 5 7 7 6 6 5 1 4 6 9 11 10 10
21 21 20 21 21 20 20 20 20 19 20 20 19 17 15 14 14 12 6 3 3 5 8 9 9 9 8 7 7 7 7 8 6 5 6 5 5 8 10 6 2 1 2 3 3 2 2 3 2 2 3 5 4 2 3 5 5 7 10 9 8 7 6 6 6 7 6 5 5 5 2 2 3 6 6 6 7 5 3 2 2 6 7 6 11 14 12
21 21 20 20 21 20 20 20 20 19 19 20 19 19 17 14 14 12 7 4 3 7 11 12 11 11 9 7 8 8 6 7 6 5 5 5 7 10 7 1 1 3 3 3 3 3 3 3 3 2 2 3 2 1 3 6 6 8 10 9 8 7 6 7 7 6 5 5 6 5 3 2 5 8 8 6 4 2 1 2 4 5 6 6 7 11 11
21 21 21 20 20 20 20 20 20 19 19 19 19 19 17 14 12 11 11 9 6 5 7 8 8 11 13 13 13 13 11 10 9 6 6 6 6 6 4 3 4 4 3 3 3 2 1 2 2 2 2 1 0 2 4 6 6 7 8 8 7 8 7 5 5 6 5 5 4 2 1 2 5 6 4 3 2 2 1 2 3 5 6 6 5 3 5
21 21 21 21 20 20 20 20 20 20 19 19 18 17 16 15 14 13 12 12 10 10 14 19 21 24 27 27 26 24 22 20 16 11 8 6 6 5 5 6 5 2 2 4 4 2 2 2 2 2 2 1 2 4 5 5 5 6 7 7 6 8 7 2 2 4 4 2 3 2 4 4 4 4 3 3 5 4 2 3 3 3 4 5 4 5 7
21 21 21 21 21 21 21 20 20 20 19 19 18 16 16 17 17 16 14 11 11 14 21 25 23 20 23 25 24 24 26 25 22 18 12 7 6 6 5 4 3 1 0 1 3 3 2 3 3 2 1 1 2 5 5 4 4 5 7 6 5 6 7 2 1 3 2 4 7 6 5 4 3 4 3 2 3 2 1 3 3 2 4 4 2 3 6
22 22 21 21 21 21 21 20 20 20 19 19 18 17 19 19 18 17 14 9 6 7 11 11 8 9 14 14 10 13 20 22 21 19 15 10 6 5 3 3 3 2 1 2 3 4 3 3 3 3 1 0 2 4 3 3 3 3 5 6 5 5 7 6 2 3 3 1 5 7 7 5 3 4 2 2 2 2 0 0 1 2 3 4 2 3 2
22 22 22 21 21 21 21 21 21 20 20 20 19 18 18 17 16 14 11 7 4 4 6 5 6 14 17 8 6 10 15 17 15 14 15 13 11 8 5 5 6 5 5 5 5 4 3 4 3 3 2 1 2 4 3 2 4 3 1 4 3 3 6 6 5 6 5 2 3 6 7 5 4 4 4 3 4 3 1 0 1 2 1 2 2 3 4
22 22 22 22 22 21 21 22 21 21 21 20 20 19 19 18 17 13 11 10 6 4 5 5 8 15 15 6 4 8 10 13 14 13 13 14 14 11 9 8 8 7 6 5 5 4 4 4 3 3 3 1 1 4 4 2 4 7 5 0 2 3 5 3 5 8 6 2 3 5 4 2 4 4 2 3 4 3 3 2 2 3 2 1 2 3 5
22 23 23 23 23 22 21 22 22 22 22 22 21 20 19 19 16 12 11 10 6 3 5 5 7 14 18 17 17 11 11 16 14 13 11 12 11 10 9 7 6 6 6 5 4 3 3 4 3 3 3 1 1 3 4 1 2 5 5 2 4 2 3 4 4 5 3 2 2 2 2 3 2 4 2 3 3 4 4 3 4 4 2 2 4 4 4
23 23 24 24 24 23 22 22 23 23 24 24 23 22 21 20 17 12 11 9 6 5 6 6 9 13 15 17 17 9 16 16 11 11 10 10 9 8 6 5 4 5 4 3 4 3 3 3 3 2 2 1 0 2 2 0 1 3 4 1 2 1 1 4 4 1 4 3 1 3 2 4 3 1 0 2 2 2 3 3 5 5 1 2 4 6 6
23 24 25 25 25 24 23 23 23 24 24 24 23 21 18 15 12 9 8 7 7 7 6 7 9 9 8 12 12 5 17 16 12 10 9 7 7 7 4 3 3 3 2 2 4 4 3 4 4 2 1 1 1 3 2 2 3 2 2 2 3 4 3 3 2 2 5 2 1 2 3 3 3 2 1 1 1 2 3 3 4 5 3 1 3 6 7
25 25 25 25 26 26 25 25 25 24 23 20 18 15 8 5 5 5 6 5 6 7 5 5 6 5 6 10 11 3 11 12 9 8 8 7 6 5 3 2 1 2 1 3 3 3 3 3 3 2 1 3 1 2 2 2 2 2 3 3 2 5 5 3 1 3 4 2 2 4 5 5 4 4 3 1 0 2 4 4 2 1 2 3 4 4 6
26 26 26 26 27 27 27 27 25 23 19 14 10 6 2 2 3 3 5 3 6 7 4 4 6 6 5 7 7 4 3 8 8 6 6 6 4 5 6 4 2 2 2 2 2 3 4 3 2 3 1 2 1 3 3 2 2 2 4 5 2 3 3 3 4 4 4 4 3 4 6 4 2 3 4 2 1 2 4 5 5 5 3 5 5 3 4
27 27 27 28 28 28 28 27 23 20 16 13 11 11 11 7 4 4 3 5 7 6 4 4 5 5 4 3 4 5 4 6 6 4 4 5 5 5 6 4 3 3 2 3 2 2 3 2 3 5 2 3 1 3 4 3 2 1 5 6 3 3 2 3 5 5 5 4 3 3 4 4 4 4 4 4 3 3 4 4 4 3 4 7 6 4 5
28 29 30 29 29 27 26 24 22 20 18 17 20 23 22 16 13 13 11 10 8 6 5 4 4 5 4 2 2 5 6 5 5 4 5 5 5 4 4 3 2 3 2 2 2 2 1 1 2 3 1 3 2 3 3 1 1 0 5 7 2 4 4 3 4 5 5 5 4 3 3 5 5 3 3 4 5 4 5 5 3 2 4 7 6 5 6
30 30 30 28 26 26 25 24 21 18 15 14 15 16 12 7 8 12 12 9 7 6 5 4 4 5 5 5 3 5 7 5 4 4 4 5 5 4 3 3 2 2 3 3 2 1 0 0 2 3 2 2 2 2 1 2 3 4 6 5 2 4 3 3 5 5 4 4 5 5 4 4 3 2 3 5 6 4 5 6 5 4 5 5 6 6 5
30 29 27 26 26 26 23 18 13 11 10 10 8 6 4 3 5 8 9 7 5 5 3 4 5 5 6 6 2 3 2 4 4 0 2 5 6 4 2 3 3 2 3 3 2 3 3 2 4 3 2 2 0 0 1 3 6 6 3 2 4 2 2 4 5 5 4 4 3 3 2 3 4 4 5 7 6 4 5 5 5 5 6 5 5 5 4
27 25 26 26 23 19 13 8 8 8 6 4 3 4 5 5 6 6 6 8 9 6 3 3 4 5 7 6 3 3 3 4 3 1 2 3 5 4 3 3 3 3 3 3 3 3 2 2 2 2 3 3 1 1 1 2 3 3 4 5 5 4 5 5 4 4 5 4 3 3 3 1 2 5 6 6 5 3 4 5 4 5 7 7 5 4 4
24 24 25 22 15 8 7 6 7 5 3 6 8 9 6 4 5 6 6 7 9 8 5 4 5 5 6 6 3 3 4 4 2 1 2 2 2 4 4 3 2 2 3 3 2 1 0 1 1 0 3 3 2 2 3 5 5 5 6 5 3 3 5 5 3 2 3 4 3 3 4 3 6 7 5 4 4 2 3 5 4 4 7 7 5 4 5
22 21 19 14 8 5 3 1 1 3 8 10 10 6 3 4 4 5 4 4 6 8 5 4 5 6 7 6 3 1 2 4 5 2 1 1 1 1 2 2 1 0 1 2 1 1 2 2 1 1 3 4 4 4 5 5 5 6 5 4 3 3 4 5 6 7 4 2 4 5 5 4 5 6 4 3 4 3 2 3 4 4 5 6 6 6 6
19 16 11 8 5 3 3 4 8 11 10 7 4 3 3 4 3 4 4 4 4 5 5 5 7 7 6 6 3 2 3 4 6 4 1 1 1 1 1 1 1 1 3 2 2 1 3 3 2 2 3 4 4 4 4 5 5 5 4 3 3 5 5 5 6 6 5 5 7 7 6 5 5 4 3 3 3 3 3 4 4 4 4 5 7 7 6
14 11 7 5 5 7 9 11 13 11 7 4 4 3 2 3 4 3 3 4 4 4 4 5 6 5 2 4 5 1 2 2 5 5 3 1 1 2 3 2 1 2 3 0 3 1 3 2 1 2 3 4 4 4 4 4 5 4 2 2 4 5 5 5 4 3 3 6 8 6 5 5 6 5 4 3 2 3 3 3 4 5 5 7 8 8 7
12 9 7 8 11 15 17 16 11 6 4 4 4 3 3 4 4 3 3 4 5 4 3 4 6 3 1 2 5 2 1 1 2 4 4 1 1 2 4 1 0 2 2 2 2 2 3 2 2 3 4 4 4 4 4 4 5 4 2 3 5 4 4 4 5 4 4 5 6 5 5 5 5 5 4 3 3 4 4 3 5 7 8 9 9 9 9
12 12 14 17 19 18 15 10 5 4 3 3 3 4 4 4 4 4 4 4 4 2 2 2 4 3 1 2 4 2 2 2 1 3 3 1 1 2 3 1 1 2 1 2 1 3 1 2 2 3 5 6 5 5 4 4 5 5 3 4 4 3 4 5 6 6 5 6 6 5 5 5 5 6 6 5 5 5 5 4 5 7 8 10 11 10 10
17 15 15 14 12 9 6 4 3 3 3 3 3 3 4 4 4 4 4 3 3 3 1 1 2 2 1 1 3 2 1 0 1 3 3 1 1 1 2 2 2 1 1 1 3 1 2 3 2 3 6 5 4 4 4 6 6 5 5 5 3 2 4 5 6 6 7 7 7 6 6 6 7 7 8 8 7 6 6 6 7 8 9 10 10 10 10
17 12 8 5 4 4 4 3 2 3 4 4 3 4 4 5 5 5 4 3 3 3 1 0 2 3 1 1 2 2 1 2 2 2 2 1 1 2 2 1 1 1 1 3 3 1 3 3 3 5 6 4 4 4 6 6 5 5 6 6 5 3 4 5 5 6 6 7 7 6 6 7 7 8 8 8 8 8 7 7 9 10 10 11 11 11 12
11 5 3 3 3 3 2 2 3 4 4 4 5 5 6 6 6 5 3 3 2 1 0 1 3 4 2 1 2 2 1 2 2 1 1 1 2 2 2 2 2 2 3 3 1 3 3 2 4 5 5 4 4 5 6 5 4 4 5 5 4 4 4 4 5 5 5 5 6 6 5 6 7 8 8 9 9 9 8 8 9 10 11 11 11 11 12
6 3 2 3 3 3 3 3 3 4 4 5 6 6 5 6 5 3 2 3 3 2 1 2 3 4 4 2 2 2 2 2 1 1 1 2 2 1 2 2 2 2 2 2 2 3 3 4 4 4 5 5 6 6 6 5 5 5 4 4 4 4 3 4 5 5 5 5 6 5 5 6 7 7 8 9 10 9 9 9 9 10 10 10 11 11 12
4 2 3 3 3 3 4 4 4 4 4 5 5 5 5 6 5 2 1 2 3 2 2 2 4 4 3 3 3 3 3 2 1 0 1 2 1 1 1 2 2 1 0 1 1 2 4 5 4 4 5 5 5 5 6 5 4 4 4 4 4 3 2 3 5 5 5 5 5 5 5 6 6 7 8 8 9 10 10 9 10 11 11 11 12 12 13
4 3 3 3 3 4 5 5 5 6 5 5 4 4 4 3 1 1 2 2 2 2 2 3 4 3 3 3 3 4 4 1 1 1 1 1 0 0 1 2 2 1 1 1 1 3 4 4 4 4 5 5 4 5 6 5 4 4 5 5 4 3 2 3 4 5 5 5 5 5 5 5 6 7 8 7 8 9 11 11 11 11 11 12 12 13 13
4 3 3 3 3 4 5 5 5 5 6 5 4 3 3 2 2 1 2 3 2 2 3 2 2 3 3 3 3 5 4 2 2 2 2 1 1 1 2 2 2 2 1 1 3 4 4 4 3 4 5 4 4 5 5 5 5 5 5 5 4 3 3 4 5 4 5 5 4 5 6 6 5 6 7 7 7 8 9 10 11 11 11 11 11 12 14
4 3 3 4 5 5 6 5 5 5 6 6 3 2 4 4 1 1 2 4 3 3 3 3 3 3 4 3 3 4 4 2 1 2 2 2 2 3 3 3 3 3 1 3 4 4 4 4 3 4 4 4 4 5 5 5 5 5 5 5 4 4 4 5 5 5 5 5 5 5 6 6 6 6 7 8 8 8 8 8 9 10 11 11 11 12 13
4 4 4 6 7 6 6 6 5 5 5 5 3 2 3 3 1 3 3 4 4 4 4 3 3 3 3 4 4 4 2 0 0 2 4 3 3 3 3 4 3 1 3 5 4 4 4 4 3 4 5 4 4 4 5 5 5 5 5 5 5 5 6 6 5 5 6 6 5 5 5 6 7 8 9 10 10 10 8 8 9 10 10 10 11 12 13
4 4 5 6 7 7 7 6 5 5 5 5 4 2 2 2 3 3 4 4 4 4 4 3 3 3 4 3 3 3 2 1 1 4 4 2 2 2 4 3 1 2 4 4 4 4 5 4 3 3 5 4 4 5 5 5 5 5 6 5 5 6 6 5 5 6 7 7 6 6 6 6 7 8 9 9 9 8 7 8 9 9 9 10 11 12 13
Wind_Direction
346 348 350 352 353 355 353 350 349 353 356 355 345 331 317 307 323 63 136 180 229 273 290 296 284 274 306 320 332 334 314 310 318 322 321 312 278 262 257 271 281 293 295 261 190 172 171 182 203 178 159 188 197 177 175 186 186 190 217 199 176 187 188 165 177 197 190 185 192 208 219 213 201 210 221 215 203 205 217 220 206 208 211 212 223 213 186
343 346 348 349 352 354 353 351 349 351 356 355 340 324 321 315 305 258 149 167 234 281 311 328 327 325 322 326 338 341 298 305 304 303 315 309 293 300 288 291 297 296 295 267 189 163 167 179 196 177 156 199 201 163 164 192 187 191 215 188 165 184 176 167 175 184 185 188 190 199 211 212 201 202 217 228 215 201 209 227 219 217 218 214 217 200 154
341 343 347 348 351 353 351 350 348 347 353 356 344 319 312 313 295 272 158 180 232 279 311 319 312 316 323 324 327 324 305 298 277 280 305 310 306 308 301 306 302 293 301 281 187 171 174 171 188 180 162 191 179 150 172 205 193 199 219 150 157 185 169 172 189 182 183 195 190 187 201 207 200 206 213 222 226 211 205 216 216 213 219 223 232 204 137
341 342 346 347 348 349 348 348 347 346 351 355 345 316 305 322 314 326 333 254 265 279 291 305 303 311 321 316 317 328 329 325 269 259 303 332 321 307 302 309 308 303 307 276 187 173 173 175 183 172 164 176 146 145 184 208 202 214 279 6 179 189 178 193 200 194 192 198 183 171 186 202 200 212 212 209 221 224 212 201 209 206 205 228 243 183 134
342 342 344 343 344 348 348 348 348 347 350 354 345 313 293 327 326 342 342 313 307 306 301 318 315 311 315 307 318 333 332 346 37 211 300 359 347 323 307 309 315 315 297 230 175 162 170 188 174 146 153 169 140 148 187 203 209 225 292 317 237 199 207 202 202 208 201 195 189 176 185 204 206 211 214 202 210 226 228 220 211 203 211 232 215 136 130
342 342 343 343 345 347 347 349 350 349 351 354 348 326 338 352 326 346 351 312 311 321 316 318 315 314 317 313 324 334 340 10 34 6 312 1 3 345 320 321 311 282 243 218 183 161 169 185 157 129 155 170 148 159 186 190 192 200 225 250 222 196 219 209 206 213 200 190 197 187 185 201 209 212 215 205 208 222 234 237 216 200 219 240 161 123 133
345 345 345 346 347 347 347 350 352 351 352 355 354 347 4 350 321 341 352 323 300 300 302 305 309 315 318 318 331 340 350 8 14 8 355 348 354 358 336 329 307 241 193 215 218 157 145 172 147 142 168 159 146 169 179 171 176 192 208 226 208 183 224 231 216 208 210 216 210 190 186 200 206 208 210 207 211 219 228 238 223 205 217 233 188 134 147
348 348 348 349 349 349 350 352 353 353 354 360 4 7 10 348 319 328 331 317 299 294 300 304 306 312 313 320 340 342 348 357 354 360 355 300 316 44 334 323 307 249 178 217 261 34 1 337 58 32 157 146 155 190 177 158 171 190 202 207 172 150 242 254 234 200 215 237 219 187 189 204 208 210 211 212 216 218 218 227 233 222 221 227 209 166 175
348 348 348 350 350 350 351 352 353 355 359 2 0 359 356 327 310 315 312 307 308 306 310 307 302 310 322 332 341 336 340 347 342 339 309 286 340 83 4 347 332 287 168 122 22 7 334 320 333 332 318 161 174 198 181 164 172 183 185 172 155 167 255 262 240 198 207 231 223 198 195 208 213 212 210 210 216 220 212 212 222 228 225 219 214 207 198
347 349 349 349 350 350 351 352 353 356 1 4 350 333 344 332 316 321 313 297 306 309 310 307 302 316 336 336 335 332 332 337 336 334 320 329 6 26 9 14 5 338 32 107 355 327 298 311 318 310 304 303 249 206 188 173 172 176 171 166 170 188 243 251 210 193 208 218 222 218 206 218 218 215 214 209 208 214 218 216 213 214 222 225 220 215 165
345 347 348 347 348 349 350 351 354 356 0 3 350 326 338 339 323 318 314 300 309 316 314 313 319 332 333 331 331 329 326 328 332 330 320 327 340 345 350 25 45 353 288 244 254 250 223 265 289 294 305 301 244 193 183 171 174 178 162 174 194 192 227 237 183 189 216 205 204 195 225 221 208 296 262 233 215 215 217 219 213 199 203 224 238 236 154
342 344 346 346 347 349 350 350 352 355 356 354 345 330 333 336 322 302 313 310 309 317 316 312 315 321 323 324 325 324 321 321 321 312 304 309 316 319 325 346 78 246 242 237 254 265 224 205 253 313 313 304 242 183 186 169 172 188 173 183 205 194 224 229 171 197 217 177 182 210 221 224 34 356 289 273 271 248 225 222 223 208 201 210 221 233 187
340 342 344 346 346 348 349 348 348 352 353 350 344 333 331 335 327 298 312 306 300 317 321 308 305 312 323 326 322 318 315 312 305 292 287 291 297 303 301 292 306 312 269 271 284 282 240 132 78 351 318 306 302 224 208 167 164 192 183 182 201 198 225 230 169 211 214 161 190 217 205 181 23 337 306 306 306 293 246 224 224 214 208 204 205 221 202
338 340 341 343 344 345 346 346 345 348 351 347 341 332 330 333 329 307 309 303 301 310 307 299 307 321 329 327 320 318 315 312 307 294 283 279 286 297 299 297 314 348 350 330 298 256 187 118 119 35 325 294 177 234 222 163 167 196 184 180 199 195 206 213 182 220 229 184 200 217 202 223 216 227 283 274 260 271 293 251 227 213 211 202 197 218 206
336 338 339 341 343 343 344 344 343 345 348 345 339 331 327 329 325 308 288 293 306 306 296 310 329 326 322 320 318 318 319 321 325 310 293 281 273 278 282 295 324 349 343 331 337 310 278 153 150 142 168 186 156 209 217 163 172 196 183 182 197 193 200 211 188 201 240 208 203 212 225 243 224 201 202 221 251 260 269 291 263 228 224 209 194 209 210
333 336 337 338 341 342 341 342 342 342 344 343 338 329 325 328 325 312 296 290 295 294 303 321 325 316 308 309 308 310 318 323 327 325 316 312 306 301 315 337 349 351 332 327 37 351 300 197 156 159 168 144 131 158 194 175 172 188 187 194 202 194 195 215 203 203 226 220 212 214 223 242 200 183 185 190 226 258 163 249 253 242 248 242 214 203 208
332 334 335 336 339 339 339 340 341 341 341 341 338 328 321 325 323 311 293 259 265 272 286 302 311 306 303 309 308 315 328 319 318 329 324 317 330 348 352 337 319 317 317 313 98 10 297 234 169 183 170 116 140 156 173 183 179 181 190 212 218 204 193 207 225 220 210 213 223 226 222 79 81 137 171 172 162 135 145 202 229 236 247 250 246 228 214
329 332 333 335 336 337 337 337 339 339 338 339 336 324 314 319 322 311 282 251 279 270 268 290 307 298 292 308 311 310 311 309 319 330 312 307 341 354 332 315 306 183 281 296 263 235 279 252 194 189 177 212 210 173 161 182 187 181 184 194 208 206 194 197 220 221 203 203 226 236 167 109 115 136 149 150 152 169 190 195 234 321 279 240 232 242 242
327 329 331 333 334 335 336 335 336 338 337 337 336 324 312 315 316 305 279 216 242 266 278 295 294 277 271 286 290 284 286 290 295 305 302 315 354 334 306 288 286 272 233 259 278 271 255 244 228 215 196 196 199 178 173 195 194 183 184 189 194 197 195 195 211 225 216 202 222 236 216 151 160 153 143 153 168 178 203 220 327 324 305 248 215 220 237
326 327 329 331 332 333 334 333 333 335 334 336 335 324 312 311 311 301 279 246 253 277 283 278 263 257 264 274 274 277 288 286 279 288 302 318 338 331 316 276 312 315 287 264 278 274 256 253 249 240 223 200 189 207 204 203 199 187 186 193 193 185 193 201 204 216 223 211 217 227 232 223 188 159 154 180 188 141 358 314 328 336 331 304 236 211 213
325 326 328 329 328 330 332 331 331 332 332 334 333 322 312 312 315 305 289 280 277 280 286 285 275 272 272 268 265 268 269 265 269 286 302 307 321 330 329 332 337 332 324 308 288 269 288 298 276 275 309 323 241 237 207 191 189 184 187 200 199 187 196 207 198 206 220 217 221 243 74 166 171 148 148 183 146 77 351 322 354 358 346 326 298 244 224
323 324 326 327 326 327 329 329 330 330 330 332 331 321 310 310 312 309 299 287 272 263 272 281 284 280 274 268 261 255 251 252 258 270 282 293 304 301 292 305 322 339 348 329 311 306 355 327 296 309 5 17 284 257 227 190 170 166 182 206 203 189 193 168 125 216 228 135 109 62 68 107 119 84 75 125 121 100 19 20 35 20 356 342 335 353 344
322 322 323 324 325 325 326 326 327 328 327 329 329 319 308 308 307 305 300 285 267 265 266 269 274 277 274 270 262 250 244 245 250 255 257 265 284 288 291 314 326 296 148 326 311 324 345 322 310 325 49 113 268 265 251 227 197 166 176 203 201 194 214 239 23 281 285 93 106 106 99 111 106 77 71 104 124 131 46 34 47 41 13 4 22 38 12
321 321 321 322 323 324 324 324 324 325 324 325 324 313 304 301 298 297 294 279 272 290 280 263 257 266 269 268 258 237 232 234 237 241 240 241 260 277 302 3 350 318 325 318 299 305 299 280 293 310 324 293 271 272 272 255 236 151 159 199 209 210 227 235 229 249 265 131 133 137 139 149 126 101 123 179 147 136 216 355 60 39 15 13 70 133 125
319 319 319 320 321 321 322 321 321 322 322 321 320 313 303 296 295 297 295 283 275 298 301 285 270 274 274 255 188 208 226 226 222 221 222 224 234 251 289 341 340 324 322 318 310 312 300 279 283 300 312 317 279 287 315 324 314 325 227 205 221 239 234 224 208 213 225 214 121 118 126 148 163 167 190 186 146 129 126 175 123 75 20 4 56 138 176
318 317 318 319 320 320 320 319 319 320 319 318 316 308 297 291 290 288 282 283 276 255 267 285 290 297 307 314 232 222 206 193 195 199 208 219 227 241 273 306 317 312 310 309 314 325 308 291 289 291 297 350 2 314 314 340 329 310 286 254 21 304 256 235 220 220 212 164 78 75 94 162 224 229 188 102 114 124 107 127 158 127 107 58 78 145 181
315 316 316 316 317 318 318 318 318 318 318 318 313 303 291 284 281 271 264 276 294 286 275 282 296 311 320 312 289 256 174 166 181 187 196 216 225 235 260 285 306 314 316 311 307 300 281 278 281 281 295 2 63 295 287 307 8 302 285 15 33 327 296 333 296 243 193 114 15 355 97 144 245 296 354 75 90 108 117 159 165 127 118 159 137 138 138
314 314 315 314 314 315 315 316 317 317 318 318 311 301 287 274 265 255 252 259 270 287 298 298 295 302 309 303 287 234 163 163 174 174 187 211 213 218 249 277 293 307 319 311 293 278 260 268 280 297 329 2 316 292 305 301 193 262 266 331 57 93 322 329 310 277 102 95 328 337 70 123 124 315 328 91 89 108 127 144 131 118 177 229 148 130 124
313 313 312 312 312 312 312 314 315 316 319 320 314 304 288 263 243 234 232 240 254 273 296 298 285 288 309 310 299 197 156 164 174 172 184 199 192 198 233 269 280 297 311 281 273 274 272 279 291 305 18 109 277 316 329 253 241 256 245 192 143 141 173 247 267 92 90 88 70 71 92 120 124 115 92 95 135 139 117 111 127 147 192 208 129 136 141
312 311 311 310 309 308 309 311 313 316 320 320 313 303 279 215 193 206 208 226 275 291 303 300 286 303 326 307 294 225 154 166 180 183 188 187 184 188 188 192 250 275 264 248 254 272 279 282 291 287 190 157 218 282 290 274 271 266 263 257 182 146 161 183 130 100 111 109 95 108 117 123 130 124 102 66 31 127 121 108 86 120 154 140 141 151 147
310 309 309 308 306 306 307 308 312 316 315 308 304 303 288 110 99 154 184 236 299 299 289 274 275 292 298 269 265 274 171 165 171 186 190 179 171 161 150 150 181 200 227 257 251 259 274 284 303 298 274 131 190 263 268 288 264 215 257 279 259 161 157 140 111 108 116 114 104 108 108 107 122 125 117 105 62 106 128 108 51 28 67 126 144 155 134
309 308 307 306 304 304 306 309 313 313 301 279 259 258 266 268 235 184 202 297 301 287 277 281 278 285 285 242 243 264 226 168 163 187 185 165 162 159 154 162 195 199 232 288 279 253 273 296 291 284 265 128 169 251 251 266 288 339 313 293 242 159 129 121 116 97 76 69 84 118 113 92 76 87 112 126 107 101 119 107 70 50 88 110 126 145 134
308 307 305 305 306 306 306 308 309 304 292 276 264 264 269 268 250 239 254 278 278 256 254 283 283 273 287 323 275 228 210 189 184 197 186 167 164 166 171 187 198 190 205 243 257 264 307 335 275 266 196 152 218 263 273 278 82 29 284 274 223 119 109 114 104 83 65 58 66 95 106 89 76 78 119 120 106 107 117 108 104 131 124 113 123 143 142
308 307 307 308 309 307 305 304 303 296 282 268 264 269 280 278 238 224 226 241 261 258 245 255 276 274 281 302 277 201 206 229 226 191 180 177 172 173 180 182 187 211 209 202 221 248 236 256 256 241 168 168 226 258 320 310 280 249 245 242 143 112 139 133 90 74 62 53 63 83 104 116 130 163 140 103 89 94 108 109 123 148 134 121 128 137 145
309 310 311 311 310 307 304 298 286 267 250 239 241 255 263 242 212 195 191 209 250 270 244 235 260 282 287 287 269 146 193 271 283 287 146 171 174 176 170 163 183 228 202 178 221 237 201 208 245 235 129 84 29 287 219 243 246 247 238 105 77 77 120 107 88 79 66 49 53 80 119 167 166 138 107 92 83 90 108 115 136 146 133 126 130 123 118
314 315 315 313 310 306 299 270 227 223 235 246 274 297 286 260 236 215 215 231 243 257 286 282 270 284 297 302 339 37 343 291 268 189 148 168 176 182 184 191 213 210 172 176 234 243 185 172 236 220 111 100 164 227 125 154 176 153 92 70 56 44 52 62 73 93 93 80 50 21 2 351 99 87 85 89 88 99 122 121 129 142 136 134 137 130 113
321 320 317 314 307 286 260 225 196 202 268 314 316 309 294 253 223 219 227 234 225 223 253 292 278 276 292 300 318 344 328 318 313 189 184 200 186 175 185 218 234 184 173 206 248 281 156 182 245 158 91 97 128 130 85 72 77 79 69 57 51 54 55 46 26 34 105 124 111 42 22 57 84 76 70 82 87 95 138 138 138 148 142 132 129 136 133
328 324 315 303 283 253 245 204 135 313 313 315 314 303 238 191 205 219 215 205 198 199 212 255 261 260 272 282 291 351 353 327 319 296 199 247 302 176 195 236 239 158 252 249 143 116 250 243 237 82 93 98 96 83 76 73 69 63 54 49 51 55 54 42 18 1 3 83 88 47 19 33 71 75 70 81 85 78 105 122 117 121 132 130 121 119 127
333 326 309 285 276 305 348 338 324 319 313 297 275 255 213 201 226 233 205 184 191 201 206 227 242 249 265 283 299 48 53 318 308 319 5 16 6 348 291 285 131 231 275 262 129 153 251 237 195 163 138 126 114 94 84 83 75 62 50 51 54 42 41 50 36 6 0 45 58 45 22 12 31 61 87 94 79 62 71 96 104 105 116 123 120 122 137
341 334 317 308 329 339 329 316 310 310 302 250 219 231 237 218 221 233 218 204 214 217 206 222 237 238 264 297 298 350 68 322 318 331 335 351 45 330 306 320 122 248 281 39 116 192 266 266 193 146 128 116 115 120 120 111 98 92 99 102 75 45 29 45 49 18 28 64 64 55 42 31 33 53 85 100 94 87 91 104 108 97 90 99 114 132 150
347 338 318 318 321 314 309 307 302 286 263 243 223 224 240 235 230 241 245 242 245 231 198 226 250 238 164 274 282 288 72 23 334 312 301 322 71 277 281 293 172 277 314 60 110 220 264 311 18 89 105 109 119 129 128 107 101 105 99 78 70 46 23 46 57 45 49 73 73 62 56 58 65 79 92 94 86 82 76 83 100 97 88 90 105 123 134
322 303 287 292 298 296 291 288 269 227 226 246 238 233 242 239 232 231 232 246 269 263 182 207 274 302 6 309 297 314 24 15 322 268 273 325 48 286 289 306 249 271 346 67 205 245 281 8 19 73 102 114 132 151 149 123 116 121 109 82 68 36 24 50 63 58 55 66 73 70 66 69 79 93 101 97 87 80 74 82 99 101 98 101 108 116 125
309 292 277 277 285 283 266 242 217 207 217 225 225 233 241 232 227 231 226 220 248 261 212 164 278 283 265 263 262 242 205 7 289 271 288 347 46 280 294 290 267 297 15 303 249 249 54 37 29 80 104 122 151 160 134 110 112 124 123 116 112 77 54 63 71 71 66 65 70 75 77 76 80 91 100 101 100 99 94 90 92 96 102 109 113 118 126
300 283 264 256 265 265 255 232 201 206 219 219 213 223 235 232 227 233 237 223 221 234 227 301 290 281 258 218 257 248 193 172 225 261 303 334 280 257 283 308 341 19 294 256 251 68 63 56 68 88 104 130 150 131 112 108 119 128 125 127 133 121 96 91 89 83 78 78 79 81 83 84 86 93 99 104 109 112 109 103 103 107 110 110 110 115 124
294 281 264 263 259 247 230 206 198 208 223 233 227 222 228 232 228 233 262 282 266 231 185 272 284 290 289 251 260 271 233 197 219 244 303 308 290 299 338 348 337 300 277 275 38 72 70 69 81 96 116 132 125 112 111 119 125 117 114 120 121 107 95 95 92 83 81 88 90 90 90 92 92 92 94 97 101 106 112 116 119 119 118 116 113 115 120
294 313 297 275 264 248 235 230 224 215 217 231 235 235 245 255 252 254 324 316 288 282 311 300 287 291 292 274 256 258 252 249 263 306 313 287 286 348 350 315 292 289 313 359 43 55 54 56 66 88 112 118 118 119 123 123 117 113 113 113 100 82 70 76 80 78 79 85 88 90 91 93 96 98 97 96 97 102 110 116 116 116 119 122 121 120 120
285 281 266 262 264 253 240 234 235 236 235 239 242 239 244 257 267 282 315 290 280 299 322 298 281 277 276 272 274 273 266 256 239 67 321 297 302 76 310 280 272 268 83 74 29 33 51 60 69 93 110 118 127 128 121 111 103 106 108 103 96 92 80 77 81 84 85 85 88 91 92 95 101 103 102 103 107 110 111 111 111 113 117 122 127 129 127
305 293 269 261 253 241 236 238 249 257 258 257 254 245 233 233 264 310 294 286 299 300 280 279 286 282 260 247 262 270 267 242 117 110 293 296 355 76 280 273 263 261 266 286 36 45 50 54 64 94 117 130 133 126 122 122 119 116 114 110 110 115 110 91 86 88 93 97 101 101 98 102 109 111 110 112 115 118 118 117 117 118 120 127 134 135 130
293 283 267 267 269 272 271 267 267 270 268 262 264 284 288 261 217 235 285 300 308 287 273 280 306 301 284 268 260 262 257 227 164 176 205 184 158 205 260 254 227 228 251 11 40 51 59 65 79 105 123 130 127 124 126 127 123 119 115 114 117 121 108 96 93 98 106 110 112 112 113 114 114 115 118 119 118 119 122 123 123 124 128 133 135 129 121
269 250 248 257 265 277 284 280 273 272 271 265 258 293 299 280 237 70 348 327 318 307 290 263 236 255 274 275 262 258 258 240 191 201 214 201 194 204 216 225 229 222 143 64 49 50 68 85 103 121 124 124 128 128 122 118 118 120 122 127 135 134 117 108 111 119 121 119 119 123 126 124 118 116 120 120 119 121 124 124 124 127 132 136 137 131 125
245 240 243 248 254 266 283 291 288 283 287 294 302 307 298 299 5 37 356 316 300 294 282 256 229 231 251 254 250 254 269 12 186 229 222 206 192 200 212 223 234 187 94 87 70 49 53 65 91 121 126 130 132 126 126 134 139 131 129 137 142 132 123 121 122 121 120 123 128 130 127 124 123 123 122 119 120 123 123 121 122 125 130 136 139 138 137
243 256 265 263 260 258 261 267 271 272 279 292 303 315 326 329 338 352 343 321 302 290 284 278 262 244 240 248 263 275 285 326 292 270 257 214 173 218 229 214 161 92 94 108 105 80 65 60 69 102 122 138 139 128 134 152 149 129 127 135 132 124 125 128 121 117 121 127 130 131 127 125 129 133 132 131 133 133 124 120 125 130 133 138 140 139 141